Temp
-17 -16 -15 -14 -13 -13 -13 -12 -11 -11 -10 -10 -9 -9 -9 -8 -8 -8 -7 -7 -7 -7 -8 -8 -8 -8 -8 -8 -8 -8 -8 -8 -8 -7 -7 -7 -7 -7 -7 -7 -7 -7 -7 -7 -7
-17 -16 -15 -14 -14 -13 -13 -12 -12 -11 -11 -10 -9 -9 -9 -8 -8 -8 -8 -7 -7 -7 -7 -8 -7 -7 -8 -8 -8 -8 -8 -8 -8 -8 -8 -7 -7 -7 -7 -7 -7 -7 -7 -7 -7
-16 -16 -15 -14 -14 -13 -13 -12 -12 -11 -11 -10 -10 -9 -9 -9 -8 -9 -8 -8 -7 -8 -8 -8 -8 -7 -8 -8 -8 -8 -7 -8 -8 -8 -8 -7 -7 -7 -7 -8 -8 -8 -7 -7 -7
-16 -15 -15 -15 -14 -14 -13 -13 -12 -12 -11 -10 -10 -9 -9 -9 -9 -8 -8 -8 -8 -7 -8 -8 -7 -7 -7 -7 -7 -7 -7 -8 -7 -7 -7 -7 -7 -7 -7 -7 -7 -7 -7 -8 -8
-16 -15 -15 -15 -14 -14 -13 -13 -12 -12 -11 -10 -10 -9 -9 -9 -9 -8 -8 -8 -8 -8 -8 -8 -7 -8 -8 -7 -7 -8 -7 -7 -7 -7 -6 -7 -7 -7 -7 -7 -7 -7 -7 -7 -8
-16 -16 -15 -16 -14 -14 -13 -13 -12 -12 -11 -10 -10 -10 -10 -9 -9 -9 -9 -8 -8 -8 -8 -8 -8 -8 -7 -7 -7 -8 -7 -7 -7 -7 -6 -7 -7 -7 -7 -7 -7 -7 -7 -7 -7
-16 -15 -16 -15 -14 -13 -13 -13 -12 -11 -11 -10 -10 -10 -10 -9 -9 -9 -9 -9 -9 -9 -8 -8 -8 -8 -7 -7 -8 -8 -7 -7 -7 -7 -7 -6 -7 -7 -7 -7 -7 -7 -7 -7 -7
-16 -16 -16 -15 -14 -13 -13 -12 -12 -11 -11 -11 -11 -10 -10 -10 -9 -9 -9 -9 -9 -9 -9 -8 -8 -8 -8 -8 -8 -8 -8 -7 -7 -7 -7 -7 -7 -7 -7 -7 -7 -7 -7 -8 -8
-16 -16 -15 -14 -14 -13 -13 -12 -11 -11 -11 -11 -11 -10 -10 -10 -10 -10 -9 -9 -9 -9 -9 -9 -8 -8 -8 -8 -8 -8 -8 -8 -7 -7 -7 -7 -7 -7 -7 -7 -7 -7 -7 -7 -7
-15 -15 -14 -14 -14 -13 -12 -12 -11 -11 -11 -11 -11 -11 -10 -10 -10 -10 -10 -9 -9 -9 -9 -9 -9 -8 -8 -8 -8 -8 -8 -8 -7 -7 -7 -7 -7 -7 -7 -7 -7 -7 -7 -7 -7
-13 -13 -13 -13 -13 -13 -12 -12 -11 -11 -11 -11 -11 -11 -11 -10 -10 -10 -10 -10 -10 -9 -9 -9 -9 -9 -8 -8 -8 -8 -8 -8 -7 -7 -7 -7 -7 -7 -7 -7 -7 -7 -7 -7 -7
-12 -12 -12 -13 -13 -13 -12 -12 -12 -12 -12 -12 -11 -11 -11 -11 -10 -10 -10 -10 -10 -9 -9 -9 -9 -9 -8 -8 -8 -8 -8 -8 -7 -7 -7 -7 -7 -7 -7 -7 -7 -7 -7 -7 -8
-12 -12 -13 -13 -13 -13 -12 -12 -12 -12 -12 -12 -11 -11 -11 -10 -10 -10 -10 -10 -10 -9 -9 -9 -9 -9 -8 -8 -8 -8 -8 -8 -7 -7 -7 -7 -7 -7 -7 -7 -8 -7 -7 -8 -8
-12 -12 -13 -13 -12 -12 -12 -11 -11 -11 -11 -11 -11 -11 -10 -10 -10 -10 -10 -10 -9 -9 -9 -9 -9 -9 -8 -8 -8 -8 -8 -8 -7 -7 -7 -7 -7 -7 -7 -8 -8 -8 -8 -9 -8
-12 -12 -12 -12 -12 -11 -11 -11 -11 -11 -11 -11 -11 -11 -10 -10 -10 -10 -10 -10 -9 -9 -9 -9 -9 -9 -8 -8 -8 -8 -8 -8 -7 -7 -7 -7 -7 -7 -8 -8 -8 -8 -8 -9 -8
-12 -12 -12 -12 -12 -12 -11 -11 -11 -11 -11 -11 -11 -10 -10 -10 -10 -10 -10 -9 -9 -9 -9 -9 -9 -9 -9 -8 -8 -8 -8 -8 -8 -8 -8 -7 -8 -8 -8 -9 -8 -8 -9 -9 -9
-12 -12 -12 -11 -11 -11 -11 -11 -11 -11 -11 -11 -11 -10 -10 -10 -10 -10 -9 -9 -9 -9 -9 -9 -9 -9 -9 -8 -8 -8 -8 -8 -8 -8 -8 -8 -8 -9 -9 -9 -9 -9 -9 -9 -9
-12 -11 -11 -11 -11 -11 -11 -11 -11 -11 -11 -11 -10 -10 -10 -10 -10 -10 -9 -9 -9 -9 -9 -9 -9 -9 -9 -9 -9 -9 -9 -9 -8 -8 -8 -9 -9 -9 -9 -9 -9 -9 -9 -10 -10
-11 -11 -11 -11 -11 -11 -11 -11 -11 -11 -11 -10 -10 -10 -10 -10 -10 -10 -10 -9 -9 -9 -9 -9 -9 -9 -9 -9 -9 -9 -9 -9 -9 -9 -9 -9 -9 -9 -10 -10 -9 -9 -10 -10 -11
-11 -11 -11 -11 -11 -11 -11 -11 -11 -11 -11 -10 -10 -10 -10 -10 -10 -10 -10 -10 -10 -9 -9 -9 -9 -9 -9 -9 -9 -9 -9 -9 -9 -9 -9 -9 -9 -10 -10 -10 -10 -10 -11 -12 -12
-11 -11 -11 -11 -11 -11 -11 -11 -11 -11 -11 -11 -11 -11 -10 -10 -10 -10 -10 -10 -10 -10 -10 -10 -9 -10 -10 -10 -10 -10 -10 -10 -10 -10 -10 -10 -10 -12 -11 -11 -11 -11 -12 -12 -13
-11 -11 -11 -11 -11 -11 -11 -11 -11 -11 -11 -11 -11 -11 -11 -11 -11 -11 -11 -10 -10 -10 -10 -10 -10 -10 -10 -10 -10 -10 -10 -10 -10 -11 -11 -11 -10 -12 -12 -12 -12 -13 -13 -14 -14
-11 -11 -11 -11 -11 -11 -11 -11 -11 -11 -11 -11 -11 -11 -11 -11 -11 -11 -11 -11 -11 -11 -10 -10 -10 -10 -10 -11 -11 -11 -11 -11 -11 -11 -11 -12 -12 -12 -13 -13 -13 -14 -14 -14 -14
-12 -11 -11 -11 -11 -11 -12 -11 -11 -11 -11 -11 -11 -11 -11 -11 -11 -11 -11 -11 -11 -11 -11 -11 -11 -11 -11 -11 -11 -11 -11 -11 -12 -12 -12 -12 -12 -14 -14 -13 -14 -15 -15 -15 -15
-13 -12 -12 -12 -12 -12 -11 -11 -11 -11 -12 -12 -11 -11 -11 -11 -11 -11 -11 -11 -11 -11 -11 -11 -11 -11 -11 -11 -11 -12 -12 -12 -13 -13 -13 -13 -13 -15 -14 -14 -15 -16 -16 -16 -16
-13 -13 -13 -13 -13 -12 -12 -12 -12 -12 -12 -12 -12 -12 -12 -12 -11 -11 -11 -11 -12 -12 -12 -12 -12 -12 -12 -12 -12 -11 -12 -13 -13 -14 -13 -14 -14 -15 -15 -16 -16 -16 -16 -16 -16
-14 -13 -13 -13 -13 -13 -13 -13 -13 -13 -13 -13 -12 -12 -12 -12 -12 -12 -12 -12 -12 -12 -12 -12 -12 -12 -12 -12 -12 -12 -14 -14 -14 -14 -15 -14 -15 -15 -15 -16 -16 -16 -16 -16 -17
Height
5717 5729 5742 5754 5766 5781 5793 5806 5816 5826 5836 5843 5850 5857 5862 5868 5872 5877 5882 5887 5890 5894 5898 5900 5902 5905 5906 5908 5909 5910 5911 5911 5912 5913 5912 5912 5909 5911 5912 5914 5913 5914 5915 5914 5913
5718 5729 5742 5754 5765 5780 5793 5805 5815 5825 5834 5842 5849 5855 5861 5866 5871 5876 5880 5884 5888 5892 5895 5898 5900 5902 5904 5906 5907 5907 5908 5909 5910 5910 5910 5907 5906 5907 5908 5908 5908 5909 5911 5910 5910
5720 5731 5743 5755 5766 5780 5794 5805 5815 5824 5833 5841 5847 5854 5859 5864 5870 5875 5878 5882 5886 5890 5893 5896 5898 5900 5902 5904 5904 5905 5906 5906 5907 5908 5907 5902 5905 5905 5905 5905 5905 5904 5903 5904 5905
5725 5735 5745 5757 5768 5782 5795 5806 5815 5825 5833 5840 5847 5853 5858 5863 5870 5871 5877 5881 5885 5888 5890 5893 5896 5898 5899 5901 5901 5903 5903 5903 5904 5904 5902 5901 5901 5903 5903 5903 5902 5902 5902 5901 5900
5730 5739 5749 5761 5773 5786 5798 5807 5816 5825 5833 5840 5846 5852 5857 5863 5868 5871 5876 5879 5882 5885 5888 5891 5893 5895 5897 5898 5899 5900 5900 5900 5901 5901 5899 5898 5898 5899 5900 5900 5899 5899 5898 5897 5896
5737 5745 5756 5767 5777 5790 5800 5809 5818 5826 5833 5840 5846 5851 5856 5862 5867 5870 5874 5877 5880 5883 5886 5888 5890 5893 5895 5895 5897 5897 5897 5896 5897 5897 5895 5895 5895 5896 5897 5896 5896 5894 5894 5893 5891
5745 5753 5765 5773 5783 5794 5803 5812 5820 5828 5835 5840 5845 5851 5856 5861 5865 5869 5872 5875 5878 5881 5884 5886 5888 5891 5892 5892 5894 5894 5894 5894 5893 5894 5892 5893 5893 5892 5892 5892 5891 5890 5888 5887 5886
5755 5764 5772 5779 5788 5798 5807 5815 5823 5829 5836 5841 5845 5851 5856 5860 5864 5868 5871 5874 5877 5879 5882 5884 5885 5887 5888 5890 5890 5891 5891 5890 5890 5891 5891 5890 5890 5888 5887 5887 5886 5885 5883 5882 5880
5767 5773 5778 5785 5794 5803 5810 5818 5825 5831 5836 5841 5846 5851 5856 5860 5864 5867 5870 5873 5875 5878 5880 5882 5883 5884 5885 5886 5887 5888 5888 5887 5887 5887 5888 5887 5887 5885 5884 5882 5881 5879 5878 5876 5874
5774 5779 5785 5792 5800 5808 5815 5821 5827 5832 5837 5842 5847 5853 5856 5860 5863 5866 5869 5871 5874 5876 5878 5879 5880 5881 5882 5883 5884 5884 5883 5883 5883 5886 5884 5884 5883 5882 5880 5878 5876 5874 5872 5870 5868
5780 5786 5792 5798 5805 5812 5819 5824 5831 5835 5839 5844 5848 5852 5855 5859 5862 5865 5868 5870 5872 5874 5875 5876 5877 5878 5879 5880 5880 5880 5879 5879 5880 5881 5881 5880 5879 5877 5876 5873 5871 5869 5867 5864 5863
5787 5792 5797 5803 5810 5816 5821 5827 5832 5838 5841 5845 5848 5852 5855 5858 5862 5864 5867 5870 5870 5871 5872 5874 5874 5875 5875 5876 5876 5876 5876 5876 5876 5876 5876 5875 5875 5873 5871 5868 5866 5864 5861 5859 5856
5792 5797 5802 5809 5815 5820 5825 5829 5833 5838 5842 5846 5848 5852 5855 5858 5860 5862 5865 5866 5867 5868 5869 5870 5872 5871 5872 5872 5873 5873 5872 5872 5872 5871 5870 5869 5870 5868 5865 5863 5860 5858 5855 5852 5849
5798 5802 5808 5814 5821 5824 5828 5831 5835 5839 5843 5847 5848 5851 5854 5856 5858 5860 5861 5863 5864 5865 5865 5867 5868 5868 5868 5869 5869 5869 5868 5867 5866 5865 5865 5864 5863 5863 5860 5857 5854 5851 5847 5843 5839
5805 5809 5813 5818 5822 5825 5829 5832 5835 5839 5843 5846 5848 5850 5851 5854 5856 5857 5858 5859 5860 5861 5863 5864 5864 5864 5865 5865 5865 5865 5863 5862 5861 5860 5859 5857 5855 5858 5853 5850 5846 5842 5838 5834 5830
5812 5814 5817 5821 5823 5827 5829 5832 5836 5840 5842 5845 5846 5847 5849 5851 5852 5853 5854 5855 5856 5857 5858 5859 5860 5861 5861 5861 5861 5860 5858 5857 5856 5854 5853 5851 5849 5850 5844 5841 5836 5832 5829 5824 5820
5815 5818 5821 5823 5826 5828 5831 5833 5837 5839 5842 5844 5844 5845 5846 5847 5848 5850 5851 5852 5854 5855 5855 5855 5856 5856 5856 5857 5856 5855 5853 5851 5850 5849 5847 5845 5842 5841 5834 5829 5825 5821 5817 5813 5808
5816 5819 5821 5823 5825 5828 5830 5833 5835 5837 5839 5840 5841 5842 5843 5845 5846 5847 5848 5849 5850 5852 5852 5852 5853 5852 5852 5852 5851 5849 5848 5845 5841 5841 5841 5838 5835 5830 5825 5819 5814 5809 5805 5800 5794
5819 5820 5822 5823 5825 5827 5829 5831 5833 5834 5836 5837 5838 5840 5841 5842 5843 5844 5845 5846 5847 5847 5848 5847 5848 5847 5846 5846 5845 5843 5841 5839 5835 5833 5831 5830 5828 5821 5814 5808 5803 5797 5793 5788 5780
5819 5820 5822 5823 5824 5826 5828 5829 5830 5831 5833 5834 5835 5837 5837 5838 5839 5840 5840 5842 5842 5842 5842 5842 5842 5841 5840 5840 5838 5836 5834 5831 5828 5823 5820 5817 5815 5808 5801 5795 5789 5784 5780 5773 5765
5818 5819 5820 5821 5823 5825 5826 5827 5827 5829 5830 5831 5832 5833 5834 5834 5835 5836 5837 5837 5837 5837 5837 5836 5837 5837 5835 5833 5831 5829 5826 5823 5820 5817 5809 5803 5805 5796 5790 5784 5776 5772 5765 5758 5751
5818 5819 5820 5821 5823 5823 5824 5825 5826 5826 5827 5828 5828 5829 5830 5831 5831 5832 5832 5832 5832 5831 5831 5831 5830 5829 5828 5826 5824 5821 5818 5814 5810 5807 5802 5793 5794 5785 5779 5770 5764 5757 5748 5741 5733
5817 5817 5818 5818 5820 5820 5821 5822 5823 5823 5824 5824 5825 5826 5826 5826 5828 5827 5827 5827 5827 5826 5825 5824 5823 5821 5820 5819 5815 5813 5809 5804 5800 5795 5792 5783 5783 5773 5766 5760 5752 5744 5735 5728 5718
5815 5816 5816 5817 5817 5818 5818 5819 5820 5820 5820 5821 5821 5821 5822 5822 5822 5822 5822 5822 5821 5820 5818 5816 5816 5813 5811 5808 5806 5803 5798 5794 5788 5783 5777 5777 5769 5767 5753 5745 5737 5730 5722 5713 5704
5812 5812 5813 5813 5814 5814 5815 5815 5815 5816 5816 5816 5816 5816 5817 5816 5816 5815 5815 5814 5813 5811 5809 5807 5806 5804 5801 5797 5793 5791 5788 5784 5778 5772 5765 5766 5756 5750 5739 5732 5725 5718 5709 5701 5692
5808 5809 5809 5809 5809 5810 5810 5810 5810 5810 5810 5810 5810 5810 5809 5809 5808 5807 5806 5804 5804 5802 5799 5797 5794 5792 5792 5787 5781 5778 5779 5771 5766 5759 5753 5748 5744 5735 5727 5720 5714 5704 5695 5687 5676
5803 5803 5804 5804 5804 5804 5804 5803 5803 5803 5803 5802 5802 5801 5801 5800 5799 5798 5797 5795 5793 5792 5789 5787 5783 5779 5778 5776 5770 5769 5767 5760 5753 5746 5740 5735 5728 5721 5715 5707 5699 5690 5680 5671 5661
Wind_Speed
36 44 47 48 52 51 51 49 46 43 39 37 35 33 30 30 29 28 26 25 23 22 21 20 17 15 14 13 11 10 11 11 11 11 12 13 15 15 15 14 16 14 12 12 11
39 45 46 47 50 48 48 47 45 42 39 36 34 31 30 29 28 27 26 25 24 23 21 20 18 16 14 13 11 12 13 12 12 13 14 18 18 19 19 19 20 17 11 11 11
40 43 45 46 48 46 46 46 43 40 38 35 33 30 29 28 27 27 25 24 24 22 21 21 19 16 15 13 12 13 13 13 14 14 15 20 18 19 19 19 18 20 20 18 16
40 42 43 45 46 45 45 44 41 39 37 34 32 30 29 27 26 27 24 25 21 21 21 19 19 16 15 13 12 12 14 14 14 14 16 19 21 19 17 18 17 18 18 17 16
39 40 42 44 44 43 44 42 40 37 35 33 31 29 27 26 24 24 23 23 23 21 19 18 17 16 13 13 12 12 15 15 15 15 17 18 19 17 16 16 15 15 14 14 14
35 38 41 44 42 43 42 40 38 36 33 31 29 27 26 25 27 24 23 22 21 20 20 19 17 15 14 14 13 14 16 17 15 14 17 17 16 15 13 12 13 14 15 15 15
36 39 43 42 41 41 40 39 37 35 32 30 28 27 26 23 22 22 22 21 20 19 19 17 16 14 15 14 14 15 17 16 16 14 16 15 13 13 14 14 15 15 16 17 18
38 42 42 41 40 40 40 37 35 33 31 30 28 26 24 24 22 22 21 20 18 18 17 16 14 14 15 15 15 17 17 17 16 13 12 13 13 15 16 17 19 20 21 22 23
39 41 42 41 42 40 36 35 33 31 30 29 27 26 24 22 22 21 19 18 17 15 14 14 15 15 15 15 17 17 16 17 14 12 12 13 14 16 18 20 21 23 25 25 26
36 35 35 40 41 36 33 33 31 30 30 29 27 25 24 22 22 20 19 18 16 15 15 15 15 15 15 17 16 16 16 15 16 11 13 14 15 16 18 20 22 24 25 25 26
28 28 31 38 40 35 31 29 28 28 28 25 23 22 21 20 20 18 18 17 16 16 16 16 16 16 16 17 16 15 16 16 15 13 14 16 16 17 20 22 23 25 26 26 26
26 28 32 38 37 31 26 24 23 25 25 23 21 20 19 19 18 18 18 17 17 17 17 17 17 16 17 16 15 15 14 16 16 16 16 18 18 19 21 23 25 26 27 28 29
24 27 32 37 31 25 21 20 21 23 23 21 19 20 18 17 16 16 17 17 17 17 17 18 16 17 16 15 14 15 16 17 18 17 18 19 17 20 22 25 28 29 30 31 32
29 32 34 30 24 20 19 18 18 19 20 19 18 18 18 17 16 16 17 17 18 17 19 17 17 17 15 15 16 16 18 18 19 19 19 20 23 19 23 27 28 30 31 33 36
29 28 27 25 22 22 21 20 20 20 20 19 19 16 16 17 15 16 17 17 17 18 16 15 16 16 16 17 18 19 20 19 19 21 23 25 27 21 26 28 29 33 35 38 42
19 20 19 19 18 18 19 20 20 18 15 13 11 14 15 14 16 17 18 17 17 16 16 16 16 18 18 19 20 21 21 21 23 24 25 26 30 27 30 31 35 37 40 44 46
16 16 16 16 14 14 13 14 15 13 14 14 12 13 14 15 15 15 15 15 15 15 17 17 18 19 19 20 21 22 23 25 26 26 28 30 33 32 35 37 40 43 46 47 50
14 15 15 16 16 16 16 16 15 14 15 13 13 13 12 13 14 15 15 16 17 17 18 18 18 19 20 21 22 23 24 27 31 31 33 34 36 38 37 42 45 48 50 51 53
9 11 12 13 14 15 15 14 13 15 15 16 14 13 14 14 15 15 16 17 18 18 19 20 20 21 22 23 24 24 27 30 34 37 39 38 37 39 41 46 51 53 54 54 55
5 6 8 10 12 13 13 14 14 15 15 16 16 16 16 16 16 17 18 18 19 20 20 21 21 22 23 24 26 28 30 33 37 42 44 44 42 43 47 51 54 57 56 57 59
3 4 5 6 7 9 11 12 13 15 15 16 16 16 17 17 18 18 18 20 20 20 21 22 23 23 25 27 29 30 33 37 40 42 47 51 47 46 49 53 58 59 58 60 60
0 3 3 6 8 9 11 12 13 14 15 15 16 17 18 19 19 19 19 20 20 20 21 23 25 27 29 30 32 35 38 40 44 45 48 51 51 50 54 58 61 61 63 64 67
4 4 3 3 5 7 9 10 11 13 14 14 15 17 17 18 18 18 19 20 22 24 25 27 29 31 34 35 38 39 41 44 47 49 49 54 51 56 58 60 60 61 63 67 70
7 8 8 8 7 8 8 9 10 12 13 13 14 15 16 18 19 21 23 24 26 28 31 33 34 37 39 41 42 43 45 47 50 52 55 53 57 50 58 60 60 62 65 68 70
10 10 10 11 13 13 14 15 15 16 17 18 19 20 22 23 25 27 29 30 32 34 37 39 39 40 42 45 47 47 47 49 51 53 57 56 59 53 58 60 58 61 65 66 67
15 15 15 14 15 16 17 18 19 21 23 24 26 27 28 30 31 33 34 36 37 38 41 42 44 45 45 47 51 52 48 51 53 57 58 57 56 56 59 59 61 64 65 66 67
18 19 19 19 19 19 20 21 22 24 25 27 28 30 31 32 34 35 36 38 40 41 43 44 46 48 50 49 54 54 49 52 54 55 56 57 57 59 60 61 62 62 65 66 67
Wind_Direction
191 181 183 186 185 194 194 188 184 188 185 185 188 191 193 194 196 197 198 201 202 204 208 209 214 218 223 222 224 228 232 236 248 266 275 277 276 279 285 294 290 300 305 300 299
172 171 177 182 180 188 189 183 181 183 182 183 186 189 192 194 197 198 198 199 202 201 205 210 210 214 219 219 223 229 241 248 255 262 274 278 281 290 300 303 304 307 306 300 297
161 167 171 179 174 183 184 179 178 179 179 182 185 187 192 192 195 193 196 200 200 202 199 207 212 213 223 225 228 236 247 257 264 271 272 275 283 283 288 292 300 306 310 312 306
162 165 168 175 169 177 179 174 174 175 178 180 183 186 189 190 191 204 197 198 199 203 204 207 211 214 216 221 232 241 254 261 268 273 271 274 277 283 291 297 299 302 306 310 310
163 164 164 168 164 172 174 171 171 173 177 179 181 185 188 190 193 199 196 194 195 202 206 209 212 216 221 230 239 250 258 266 265 269 271 273 277 285 292 300 309 313 316 314 308
156 154 158 156 160 169 169 167 169 172 176 178 179 182 186 191 191 200 196 196 197 200 205 210 214 219 227 237 245 252 257 265 268 269 275 278 287 297 303 307 308 308 310 306 302
143 146 153 149 158 164 164 165 168 171 175 178 178 181 186 188 193 195 198 197 200 204 208 212 218 225 232 243 248 251 255 259 270 272 278 286 293 302 303 304 307 308 305 305 305
136 146 145 149 157 159 160 164 168 171 176 178 177 181 185 189 191 195 200 200 203 208 212 217 223 232 240 246 248 250 254 260 266 270 274 282 294 300 305 306 306 306 306 306 304
139 144 147 151 155 157 160 163 168 173 177 179 178 181 185 189 192 197 201 203 207 212 220 226 231 237 245 247 246 252 255 262 265 269 275 280 289 293 298 302 303 304 303 302 300
144 145 150 154 153 155 158 164 171 175 178 180 179 183 187 190 196 200 205 209 214 221 228 234 239 242 245 249 250 251 255 255 263 267 278 283 288 294 298 302 305 304 304 304 303
133 140 149 154 154 157 160 169 174 177 180 180 182 186 193 195 200 205 212 220 224 230 234 239 242 247 248 251 252 249 253 259 267 274 279 285 294 300 301 299 299 301 299 299 300
137 145 152 154 155 159 163 169 176 181 181 182 186 193 198 202 207 214 223 230 233 238 242 244 248 250 250 247 249 250 255 263 270 275 279 285 293 296 292 293 296 296 295 299 298
130 141 149 152 155 159 162 170 178 182 184 188 192 200 205 209 216 221 228 233 239 245 247 248 250 248 248 245 248 253 258 264 272 278 287 289 293 295 294 295 295 293 294 294 300
128 134 141 147 152 156 162 169 176 183 188 194 199 203 209 213 222 228 234 239 242 244 246 249 247 246 245 249 254 261 266 272 280 285 289 290 292 294 297 293 291 294 296 306 311
134 139 145 152 157 165 169 175 181 186 195 204 207 213 220 228 231 238 241 246 244 244 243 241 242 247 252 258 264 271 276 281 286 288 289 292 293 299 294 296 298 302 307 309 308
143 150 156 162 169 177 184 191 196 200 208 222 228 234 239 240 242 243 244 240 239 238 237 238 244 254 259 266 272 277 282 283 285 287 291 294 295 308 303 306 306 307 306 306 306
144 158 167 174 183 191 199 205 212 218 222 230 234 245 246 243 246 244 240 240 239 244 250 252 256 262 268 270 276 281 285 289 288 291 293 295 296 306 310 308 307 307 308 308 307
158 170 179 185 194 201 209 215 217 215 224 224 235 241 237 240 245 243 244 243 248 255 260 264 266 269 270 274 279 284 289 294 296 295 294 299 304 307 308 307 308 309 308 309 308
166 172 179 185 194 199 203 208 209 217 223 218 235 238 240 243 244 246 252 255 259 263 267 269 270 273 275 280 282 287 293 296 296 294 298 300 304 307 310 308 309 309 308 310 308
170 187 199 203 204 207 211 213 217 224 225 232 244 244 244 244 248 253 259 261 266 268 268 270 273 276 279 284 287 292 295 296 297 299 301 304 307 313 311 311 309 307 309 308 308
187 198 209 224 235 238 235 233 234 237 238 242 247 246 248 252 256 259 263 265 266 269 270 272 275 277 281 285 289 293 295 296 298 301 303 305 309 314 309 308 307 308 308 307 308
232 222 243 247 243 243 244 246 250 252 251 252 254 257 258 260 261 262 262 265 266 270 273 275 278 281 283 288 292 294 296 298 299 301 302 303 310 308 310 307 308 309 307 308 309
265 283 272 259 258 260 261 260 258 260 263 264 266 265 264 265 266 268 270 270 273 276 277 279 283 285 288 290 292 294 296 297 298 300 303 302 312 310 307 306 307 305 307 308 309
282 263 258 265 266 265 263 263 269 273 274 273 270 269 269 270 273 273 273 275 277 280 282 283 284 287 290 291 292 294 295 297 298 300 300 307 306 309 305 307 305 307 309 309 311
280 278 279 272 265 265 268 269 271 273 273 273 273 273 274 275 276 277 278 279 281 282 283 284 286 288 289 290 293 294 296 298 298 299 301 305 306 309 307 306 308 309 309 309 309
275 275 273 274 276 277 275 275 275 276 278 278 278 277 277 278 278 279 280 281 283 284 286 287 289 288 289 292 292 293 298 297 298 301 303 307 308 305 305 307 307 307 307 308 309
271 272 274 277 276 275 276 278 280 280 280 280 280 280 281 281 281 282 283 284 284 284 284 286 287 288 288 289 289 293 297 298 299 302 305 307 306 305 306 306 306 307 307 309 311